GW4516 Weather Reports


time (UTC)temp
C
wind
direction
speed
KPH
gust
KPH
rain 1hr
cm
rain 24hr
cm
rain mn
cm
humidity
%
barometer
mb
20260507115142 5 157 0.0 1.6 0.00 0.00 0.00 55 1016.4
20260507114139 5 157 0.0 0.0 0.00 0.00 0.00 55 1016.4
20260507113141 5 157 0.0 0.0 0.00 0.00 0.00 55 1016.5
20260507112141 5 247 0.0 1.6 0.00 0.00 0.00 54 1016.5
20260507111141 5 246 3.2 4.8 0.00 0.00 0.00 53 1016.4
20260507111042 5 247 0.0 0.0 0.00 0.00 0.00 52 1016.4
20260507104142 6 178 0.0 3.2 0.00 0.00 0.00 54 1016.4
20260507103239 5 247 0.0 3.2 0.00 0.00 0.00 55 1016.4
20260507101340 5 157 0.0 0.0 0.00 0.00 0.00 56 1016.7
20260507100342 5 157 0.0 0.0 0.00 0.00 0.00 55 1016.9
20260507095341 5 157 0.0 0.0 0.00 0.00 0.00 55 1016.9
20260507093443 5 247 0.0 1.6 0.00 0.00 0.00 55 1017.1
20260507092442 5 135 0.0 0.0 0.00 0.00 0.00 55 1017.4
20260507091442 5 225 0.0 1.6 0.00 0.00 0.00 56 1017.3
20260507090440 5 157 3.2 4.8 0.00 0.00 0.00 57 1017.4
20260507085440 5 157 0.0 0.0 0.00 0.00 0.00 58 1017.5
20260507084441 5 157 0.0 0.0 0.00 0.00 0.00 57 1017.8
20260507083441 6 157 0.0 0.0 0.00 0.00 0.00 56 1018.0
20260507082440 5 157 0.0 1.6 0.00 0.00 0.00 56 1018.3
20260507081540 5 157 0.0 0.0 0.00 0.00 0.00 57 1018.4
20260507080541 5 157 0.0 0.0 0.00 0.00 0.00 58 1018.5
20260507075640 5 157 0.0 0.0 0.00 0.00 0.00 59 1018.7
20260507074643 6 157 0.0 0.0 0.00 0.00 0.00 58 1018.8
20260507072741 6 157 0.0 0.0 0.00 0.00 0.00 58 1018.8
20260507071742 5 157 0.0 1.6 0.00 0.00 0.00 58 1018.9
20260507064740 6 157 0.0 0.0 0.00 0.00 0.00 56 1019.3
20260507063742 6 157 0.0 0.0 0.00 0.00 0.00 56 1019.4
20260507063642 6 157 0.0 0.0 0.00 0.00 0.00 56 1019.4
20260507062641 6 157 0.0 0.0 0.00 0.00 0.00 54 1019.5
20260507060741 6 292 0.0 0.0 0.00 0.00 0.00 53 1019.6
20260507055741 6 292 0.0 0.0 0.00 0.00 0.00 54 1019.7
20260507054741 6 292 0.0 0.0 0.00 0.00 0.00 54 1019.6
20260507053839 5 292 0.0 0.0 0.00 0.00 0.00 56 1019.6
20260507052842 5 292 0.0 0.0 0.00 0.00 0.00 57 1019.5
20260507051841 5 292 0.0 0.0 0.00 0.00 0.00 58 1019.5
20260507045919 5 292 0.0 0.0 0.00 0.00 0.00 57 1019.5
20260507045017 5 292 0.0 0.0 0.00 0.00 0.00 55 1019.7
20260507043118 6 292 0.0 0.0 0.00 0.00 0.00 54 1019.8
20260507042117 6 292 0.0 0.0 0.00 0.00 0.00 53 1020.0
20260507041119 6 292 0.0 0.0 0.00 0.00 0.00 54 1020.0
20260507040119 6 292 0.0 0.0 0.00 0.00 0.00 53 1020.1
20260507035218 6 292 0.0 0.0 0.00 0.00 0.00 52 1020.1
20260507034220 6 292 0.0 0.0 0.00 0.00 0.00 52 1020.1
20260507033219 6 292 0.0 0.0 0.00 0.00 0.00 52 1020.3
20260507031319 6 292 0.0 0.0 0.00 0.00 0.00 50 1020.4
20260507031219 6 292 0.0 0.0 0.00 0.00 0.00 50 1020.4
20260507025320 6 292 0.0 0.0 0.00 0.00 0.00 49 1020.5
20260507024319 6 292 0.0 0.0 0.00 0.00 0.00 47 1020.5
20260507024221 6 292 0.0 0.0 0.00 0.00 0.00 47 1020.6
20260507023219 7 292 0.0 0.0 0.00 0.00 0.00 45 1020.5
20260507023119 7 292 0.0 0.0 0.00 0.00 0.00 45 1020.4
20260507023019 7 292 0.0 0.0 0.00 0.00 0.00 45 1020.4
20260507022019 7 292 0.0 0.0 0.00 0.00 0.00 44 1020.4
20260507021118 7 292 0.0 0.0 0.00 0.00 0.00 43 1020.5
20260507020118 8 292 0.0 0.0 0.00 0.00 0.00 42 1020.3
20260507015120 8 292 0.0 0.0 0.00 0.00 0.00 41 1020.4
20260507014119 8 292 0.0 0.0 0.00 0.00 0.00 39 1020.4
20260507013118 9 292 0.0 0.0 0.00 0.00 0.00 37 1020.4
20260507012118 10 292 0.0 0.0 0.00 0.00 0.00 36 1020.4
20260507011118 10 292 0.0 0.0 0.00 0.00 0.00 35 1020.5
20260507010118 11 262 1.6 3.2 0.00 0.00 0.00 34 1020.3
20260507004119 11 312 4.8 8.0 0.00 0.00 0.00 32 1020.5
20260507002119 11 251 0.0 3.2 0.00 0.00 0.00 33 1020.5
20260507001119 11 294 1.6 4.8 0.00 0.00 0.00 32 1020.6
20260506235217 12 304 1.6 8.0 0.00 0.00 0.00 32 1020.6
20260506235118 12 277 1.6 4.8 0.00 0.00 0.00 32 1020.6
20260506232118 12 288 4.8 9.7 0.00 0.00 0.00 31 1020.8
20260506231118 12 279 6.4 16.1 0.00 0.00 0.00 31 1020.9
20260506230118 12 297 6.4 12.9 0.00 0.00 0.00 31 1021.0
20260506225119 12 254 4.8 11.3 0.00 0.00 0.00 32 1021.0
20260506223120 11 242 1.6 3.2 0.00 0.00 0.00 32 1021.2
20260506222120 11 288 1.6 4.8 0.00 0.00 0.00 32 1021.2
20260506221217 12 281 11.3 22.5 0.00 0.00 0.00 31 1021.3
20260506220220 12 278 3.2 6.4 0.00 0.00 0.00 31 1021.4
20260506215318 12 258 4.8 9.7 0.00 0.00 0.00 32 1021.3
20260506214418 12 282 4.8 9.7 0.00 0.00 0.00 31 1021.4
20260506213418 12 298 3.2 9.7 0.00 0.00 0.00 31 1021.3
20260506212419 12 254 6.4 9.7 0.00 0.00 0.00 30 1021.4
20260506211517 11 295 4.8 14.5 0.00 0.00 0.00 31 1021.4
20260506210519 12 259 3.2 8.0 0.00 0.00 0.00 31 1021.5
20260506205518 12 304 4.8 9.7 0.00 0.00 0.00 30 1021.8
20260506203619 12 284 4.8 9.7 0.00 0.00 0.00 31 1022.0
20260506202618 11 323 3.2 8.0 0.00 0.00 0.00 31 1022.1
20260506201618 11 299 4.8 8.0 0.00 0.00 0.00 31 1022.2
20260506200620 11 299 8.0 11.3 0.00 0.00 0.00 32 1022.4
20260506195618 12 276 4.8 9.7 0.00 0.00 0.00 32 1022.4
20260506194618 11 297 4.8 11.3 0.00 0.00 0.00 33 1022.5
20260506193717 11 287 3.2 9.7 0.00 0.00 0.00 32 1022.5
20260506192719 11 277 3.2 11.3 0.00 0.00 0.00 32 1022.7
20260506191718 11 294 6.4 14.5 0.00 0.00 0.00 32 1022.5
20260506185720 10 321 6.4 16.1 0.00 0.00 0.00 35 1022.8
20260506184717 10 5 6.4 16.1 0.00 0.00 0.00 35 1022.8
20260506183718 10 300 6.4 14.5 0.00 0.00 0.00 36 1023.0
20260506182817 11 317 6.4 14.5 0.00 0.00 0.00 37 1023.0
20260506181819 10 246 6.4 11.3 0.00 0.00 0.00 37 1023.1
20260506180820 9 320 3.2 9.7 0.00 0.00 0.00 37 1023.1
20260506175819 9 307 6.4 17.7 0.00 0.00 0.00 37 1023.3
20260506173819 9 322 4.8 12.9 0.00 0.00 0.00 39 1023.3
20260506172820 8 275 9.7 14.5 0.00 0.00 0.00 39 1023.3
20260506171818 9 279 6.4 14.5 0.00 0.00 0.00 39 1023.3
20260506171719 9 313 3.2 11.3 0.00 0.00 0.00 39 1023.2
20260506165718 8 297 3.2 11.3 0.00 0.00 0.00 40 1023.3
20260506164718 8 319 3.2 8.0 0.00 0.00 0.00 40 1023.3
20260506163817 8 335 4.8 9.7 0.00 0.00 0.00 41 1023.3
20260506161819 8 281 4.8 8.0 0.00 0.00 0.00 42 1023.4
20260506160918 8 23 1.6 8.0 0.00 0.00 0.00 40 1023.3
20260506155919 8 273 1.6 4.8 0.00 0.00 0.00 40 1023.3
20260506154918 8 305 3.2 6.4 0.00 0.00 0.00 40 1023.3
20260506153918 8 247 4.8 12.9 0.00 0.00 0.00 40 1023.3
20260506152919 10 275 3.2 8.0 0.00 0.00 0.00 40 1023.1
20260506150819 9 320 3.2 6.4 0.00 0.00 0.00 43 1023.3
20260506145819 8 335 3.2 6.4 0.00 0.00 0.00 44 1023.3
20260506144720 8 279 3.2 11.3 0.00 0.00 0.00 46 1023.3
20260506143817 7 252 3.2 6.4 0.00 0.00 0.00 46 1023.3
20260506141917 6 337 3.2 8.0 0.00 0.00 0.00 51 1023.3
20260506140919 6 312 1.6 8.0 0.00 0.00 0.00 51 1023.3
20260506135920 6 263 1.6 4.8 0.00 0.00 0.00 53 1023.2
20260506134917 6 225 1.6 3.2 0.00 0.00 0.00 56 1023.1
20260506133918 5 10 4.8 8.0 0.00 0.00 0.00 58 1023.1
20260506133818 5 1 3.2 6.4 0.00 0.00 0.00 59 1023.1
20260506132820 4 264 3.2 4.8 0.00 0.00 0.00 65 1023.2
20260506131917 3 292 0.0 1.6 0.00 0.00 0.00 65 1023.0
20260506130018 3 319 0.0 4.8 0.00 0.00 0.00 68 1022.7
20260506125019 2 292 3.2 4.8 0.00 0.00 0.00 69 1022.7
20260506124019 2 270 0.0 1.6 0.00 0.00 0.00 71 1022.5
20260506123020 1 270 0.0 1.6 0.00 0.00 0.00 73 1022.4
20260506122917 1 270 0.0 1.6 0.00 0.00 0.00 74 1022.5
20260506121919 1 292 0.0 1.6 0.00 0.00 0.00 75 1022.2
20260506120919 0 292 1.6 3.2 0.00 0.00 0.00 78 1022.1
20260506115920 0 292 1.6 4.8 0.00 0.00 0.00 80 1022.0